TimeCET,TemperatureF,Dew PointF,Humidity,Sea Level PressureIn,VisibilityMPH,Wind Direction,Wind SpeedMPH,Gust SpeedMPH,PrecipitationIn,Events,Conditions,WindDirDegrees,DateUTC
12:20 AM,44.6,41.0,87,29.92,6.2,South,21.9,-,N/A,,Scattered Clouds,180,2012-11-22 23:20:00
12:50 AM,44.6,41.0,87,29.92,6.2,South,21.9,33.4,N/A,,Scattered Clouds,180,2012-11-22 23:50:00
1:00 AM,45,41,80,29.92,9,South,22.4,,,,Partly Cloudy,180,2012-11-23 00:00:00
1:20 AM,44.6,41.0,87,29.89,6.2,South,19.6,31.1,N/A,,Scattered Clouds,180,2012-11-23 00:20:00
1:50 AM,44.6,41.0,87,29.89,6.2,South,19.6,-,N/A,,Scattered Clouds,170,2012-11-23 00:50:00
2:20 AM,44.6,39.2,81,29.86,6.2,South,20.7,32.2,N/A,,Partly Cloudy,170,2012-11-23 01:20:00
2:50 AM,44.6,39.2,81,29.86,6.2,South,20.7,34.5,N/A,,Partly Cloudy,180,2012-11-23 01:50:00
3:20 AM,44.6,41.0,87,29.86,6.2,South,21.9,-,N/A,,Partly Cloudy,180,2012-11-23 02:20:00
3:50 AM,44.6,39.2,81,29.86,6.2,South,20.7,-,N/A,,Partly Cloudy,170,2012-11-23 02:50:00
4:00 AM,45,40,77,29.87,9,South,20.1,,,,Scattered Clouds,170,2012-11-23 03:00:00
4:20 AM,44.6,39.2,81,29.83,-9999.0,South,21.9,33.4,N/A,,Clear,170,2012-11-23 03:20:00
4:50 AM,44.6,41.0,87,29.83,-9999.0,South,19.6,31.1,N/A,,Clear,180,2012-11-23 03:50:00
5:20 AM,44.6,41.0,87,29.83,6.2,South,20.7,-,N/A,Rain,Light Rain,170,2012-11-23 04:20:00
5:50 AM,44.6,41.0,87,29.83,6.2,South,18.4,29.9,N/A,Rain,Light Rain,180,2012-11-23 04:50:00
6:20 AM,44.6,41.0,87,29.83,6.2,South,17.3,-,N/A,Rain,Light Rain,190,2012-11-23 05:20:00
6:50 AM,44.6,41.0,87,29.83,6.2,South,16.1,-,N/A,Rain,Light Rain,180,2012-11-23 05:50:00
7:00 AM,45,41,82,29.84,7,South,15.7,,,Rain,Light Rain,180,2012-11-23 06:00:00
7:20 AM,44.6,41.0,87,29.83,5.6,South,15.0,-,N/A,Rain,Light Rain,180,2012-11-23 06:20:00
7:50 AM,44.6,42.8,93,29.86,5.0,SW,12.7,-,N/A,Rain,Light Rain,230,2012-11-23 06:50:00
8:20 AM,46.4,42.8,87,29.86,4.3,West,11.5,-,N/A,Rain,Light Rain,280,2012-11-23 07:20:00
8:50 AM,46.4,41.0,81,29.89,5.6,WNW,11.5,-,N/A,Rain,Light Rain,290,2012-11-23 07:50:00
9:20 AM,44.6,41.0,87,29.89,6.2,West,9.2,-,N/A,Rain,Light Rain,280,2012-11-23 08:20:00
9:50 AM,44.6,41.0,87,29.92,6.2,WSW,5.8,-,N/A,Rain,Light Rain,250,2012-11-23 08:50:00
10:00 AM,45,42,83,29.93,8,WSW,6.7,,,Rain,Light Rain,250,2012-11-23 09:00:00
10:20 AM,44.6,42.8,93,29.92,6.2,SW,4.6,-,N/A,Rain,Light Rain,220,2012-11-23 09:20:00
10:50 AM,44.6,42.8,93,29.92,6.2,SSW,6.9,-,N/A,Rain,Light Rain,200,2012-11-23 09:50:00
11:20 AM,44.6,41.0,87,29.95,6.2,SSW,8.1,-,N/A,Rain,Light Rain,200,2012-11-23 10:20:00
11:50 AM,44.6,41.0,87,29.95,6.2,South,6.9,-,N/A,,Scattered Clouds,190,2012-11-23 10:50:00
12:20 PM,44.6,41.0,87,29.95,6.2,SSW,8.1,-,N/A,,Mostly Cloudy,200,2012-11-23 11:20:00
12:50 PM,46.4,42.8,87,29.95,6.2,SSW,8.1,-,N/A,,Scattered Clouds,200,2012-11-23 11:50:00
1:00 PM,46,42,81,29.96,19,SSW,6.7,,,,Partly Cloudy,200,2012-11-23 12:00:00
1:20 PM,46.4,42.8,87,29.95,6.2,SSW,9.2,-,N/A,,Mostly Cloudy,200,2012-11-23 12:20:00
1:50 PM,46.4,41.0,81,29.95,6.2,SSW,8.1,-,N/A,,Mostly Cloudy,210,2012-11-23 12:50:00
2:20 PM,46.4,41.0,81,29.98,6.2,SSW,8.1,-,N/A,,Mostly Cloudy,200,2012-11-23 13:20:00
2:50 PM,46.4,42.8,87,29.98,6.2,SSW,5.8,-,N/A,,Mostly Cloudy,200,2012-11-23 13:50:00
3:20 PM,46.4,41.0,81,29.98,6.2,South,5.8,-,N/A,,Mostly Cloudy,190,2012-11-23 14:20:00
3:50 PM,46.4,41.0,81,29.98,6.2,South,5.8,-,N/A,,Partly Cloudy,180,2012-11-23 14:50:00
4:00 PM,46,42,80,29.99,19,South,6.7,,,,Scattered Clouds,180,2012-11-23 15:00:00
4:20 PM,44.6,41.0,87,29.98,6.2,SSE,4.6,-,N/A,,Partly Cloudy,160,2012-11-23 15:20:00
4:50 PM,44.6,41.0,87,29.98,6.2,South,5.8,-,N/A,,Partly Cloudy,170,2012-11-23 15:50:00
5:20 PM,42.8,39.2,87,29.98,-9999.0,SSE,5.8,-,N/A,,Clear,160,2012-11-23 16:20:00
5:50 PM,42.8,39.2,87,29.98,-9999.0,South,6.9,-,N/A,,Clear,170,2012-11-23 16:50:00
6:20 PM,41.0,39.2,93,30.01,-9999.0,South,5.8,-,N/A,,Clear,170,2012-11-23 17:20:00
6:50 PM,41.0,37.4,87,30.01,-9999.0,Variable,1.2,-,N/A,,Clear,0,2012-11-23 17:50:00
7:00 PM,40,37,87,30.02,11,,2.2,,,,Scattered Clouds,,2012-11-23 18:00:00
7:20 PM,41.0,37.4,87,30.01,-9999.0,South,2.3,-,N/A,,Clear,170,2012-11-23 18:20:00
7:50 PM,41.0,37.4,87,30.01,2.8,South,3.5,-,N/A,,Mist,170,2012-11-23 18:50:00
8:20 PM,39.2,37.4,93,30.01,2.8,SSE,2.3,-,N/A,,Mist,160,2012-11-23 19:20:00
8:50 PM,39.2,37.4,93,30.01,1.6,SE,3.5,-,N/A,,Mist,140,2012-11-23 19:50:00
9:20 PM,39.2,37.4,93,30.01,1.1,SSE,3.5,-,N/A,,Mist,150,2012-11-23 20:20:00
9:50 PM,39.2,35.6,87,30.01,0.5,SSE,2.3,-,N/A,Fog,Fog,150,2012-11-23 20:50:00
10:00 PM,38,36,88,30.03,0,SSE,2.2,,,Fog,Partial Fog,150,2012-11-23 21:00:00
10:20 PM,37.4,35.6,93,30.04,0.3,SE,3.5,-,N/A,Fog,Fog,140,2012-11-23 21:20:00
10:50 PM,37.4,35.6,93,30.04,0.2,SSE,2.3,-,N/A,Fog,Fog,160,2012-11-23 21:50:00
11:20 PM,35.6,33.8,93,30.04,0.2,SE,2.3,-,N/A,Fog,Fog,140,2012-11-23 22:20:00
11:50 PM,35.6,33.8,93,30.04,0.1,SSE,2.3,-,N/A,Fog,Fog,150,2012-11-23 22:50:00